Meteo Giornale » Osservazioni meteo Italia » Torino-Caselle

ore: 04:50 - Osservazioni Meteo Torino-Caselle
Lat. 45° 13' N Lon. 7° 39' E Alt. 301 metri s.l.m.

foschia Europe/Rome

11 °C

Foschia

Temp. 24 Ore

10 °C

15 °C

Nord

3.7 Km/h

Dew point 10 °C

Umidità 93 %

Visibilità  3 Km

Il sole sorge alle ore 06:21

Il sole tramonta alle ore 20:32

Data e Ora Cielo e Fenomeni T °C DP °C Um. % Pres. hPa Vis. km Vento km/h
Oggi h: 04:50 foschia Foschia 11 10 93 1006 3 N 3.7
Oggi h: 04:20 foschia Foschia 11 10 93 1006 3 N 1.8
Oggi h: 03:50 foschia Foschia 11 10 93 1006 3 N 5.5
Oggi h: 03:20 foschia Foschia 11 10 93 1006 4 N 5.5
Oggi h: 02:50 foschia Foschia 11 10 93 1007 4 N 3.7
Oggi h: 02:20 foschia Foschia 11 10 93 1007 5 N 5.5
Oggi h: 01:20 coperto Coperto 11 10 93 1007 7 N 5.5
Oggi h: 00:50 coperto Coperto 11 10 93 1007 7 E 7.4
Oggi h: 00:20 coperto Coperto 11 10 93 1007 7 N 5.5
Ieri h: 23:50 coperto Coperto 11 10 93 1007 7 N 5.5
Ieri h: 23:20 coperto Coperto 11 10 93 1007 7 E 7.4
Ieri h: 22:50 coperto Coperto 12 10 87 1007 8 N 5.5
Ieri h: 22:20 coperto Coperto 12 10 87 1007 10 NE 9.3
Ieri h: 21:50 coperto Coperto 12 11 93 1007 10 E/NE 9.3
Ieri h: 21:20 coperto Coperto 12 10 87 1007 10 N 5.5
Ieri h: 20:50 coperto Coperto 13 10 81 1006 10 N 5.5
Ieri h: 20:20 molto_nuvoloso Molto Nuvoloso 13 10 81 1007 10 N 1.8
Ieri h: 19:50 molto_nuvoloso Molto Nuvoloso 13 10 81 1007 10 N 3.7
Ieri h: 19:20 molto_nuvoloso Molto Nuvoloso 13 10 81 1006 10 E/NE 9.3
Ieri h: 18:50 molto_nuvoloso Molto Nuvoloso 13 10 81 1006 10 E/NE 9.3
Ieri h: 18:20 molto_nuvoloso Molto Nuvoloso 14 9 71 1007 10 E/NE 7.4
Ieri h: 17:50 molto_nuvoloso Molto Nuvoloso 14 9 71 1007 10 E/NE 7.4
Ieri h: 17:20 molto_nuvoloso Molto Nuvoloso 14 10 76 1006 10 E 11.1
Ieri h: 16:50 molto_nuvoloso Molto Nuvoloso 14 9 71 1007 10 E/NE 11.1
Ieri h: 16:20 molto_nuvoloso Molto Nuvoloso 14 10 76 1007 10 E 13
Ieri h: 15:50 molto_nuvoloso Molto Nuvoloso 15 10 72 1007 10 E 13
Ieri h: 15:20 molto_nuvoloso Molto Nuvoloso 14 9 71 1007 10 E 11.1
Ieri h: 14:50 molto_nuvoloso Molto Nuvoloso 14 8 67 1007 10 N 5.5
Ieri h: 14:20 molto_nuvoloso Molto Nuvoloso 15 8 62 1007 10 E 11.1
Ieri h: 13:50 molto_nuvoloso Molto Nuvoloso 15 9 67 1006 10 E 13
Ieri h: 13:20 molto_nuvoloso Molto Nuvoloso 14 9 71 1006 10 E 13
Ieri h: 12:50 molto_nuvoloso Molto Nuvoloso 14 9 71 1006 10 N 7.4
Ieri h: 12:20 coperto Coperto 13 7 66 1006 10 E 7.4
Ieri h: 11:50 coperto Coperto 13 9 76 1006 10 E/SE 7.4
Ieri h: 11:20 coperto Coperto 13 9 76 1006 10 N 3.7
Ieri h: 10:50 coperto Coperto 13 8 71 1007 10 N 5.5
Ieri h: 10:20 coperto_pioggia Pioviggine Leggera 12 10 87 1006 10 N 5.5
Ieri h: 09:50 coperto Coperto 12 10 87 1007 10 N 5.5
Ieri h: 09:20 coperto Coperto 12 9 81 1007 10 N 5.5
Ieri h: 08:50 molto_nuvoloso Molto Nuvoloso 12 9 81 1006 10 N 3.7
Ieri h: 08:20 molto_nuvoloso Molto Nuvoloso 11 9 87 1007 10 N 3.7
Ieri h: 07:50 coperto Coperto 11 9 87 1006 10 N 3.7
Ieri h: 07:20 coperto_pioggia Pioggia Debole 10 9 93 1006 8 N 7.4
Ieri h: 06:50 coperto_pioggia Pioggia Debole 10 9 93 1006 10 N/NO 7.4
Ieri h: 06:20 coperto_pioggia Pioggia Debole 10 9 93 1006 9 N/NO 9.3
Ieri h: 05:50 coperto_pioggia Pioggia 10 9 93 1006 8 N/NO 13